Tracking 32407 objects as of 5-Dec-2025
HD Live streaming from Space Station
objects crossing your sky now

OPS 6431

Track OPS 6431 now!
10-day predictions
OPS 6431 is classified as:


NORAD ID: 8818
Int'l Code: 1976-038A
Perigee: 653.5 km
Apogee: 1,207.1 km
Inclination: 63.4 °
Period: 103.5 minutes
Semi major axis: 7301 km
RCS: Unknown
Launch date: April 30, 1976
Source: United States (US)
Launch site: AIR FORCE WESTERN TEST RANGE (AFWTR)
Your satellite tracking list
Your tracking list is empty




NASA's NSSDC Master Catalog

Two Line Element Set (TLE):
1 08818U 76038A   25338.23488756  .00000183  00000-0  12994-3 0  9993
2 08818  63.3555 260.8460 0379052 179.9947 180.1175 13.91561096 80093
Source of the keplerian elements: McCants